Metropolis, IL

4:50 PM CST on January 22, 2018 (GMT -0600)
Metropolis

Weather History for KM30 - November, 2012

Change the Weather History Date:

Monday, November 26, 2012

  Actual Average (KPAH) Record (KPAH)
Temperature  
Mean Temperature 42 °F -  
Max Temperature 51 °F 55 °F 74 °F (1965)
Min Temperature 33 °F 39 °F 13 °F (1977)
Degree Days  
Heating Degree Days 23    
Moisture  
Dew Point 35 °F    
Average Humidity 80    
Maximum Humidity 98    
Minimum Humidity 47    
Precipitation  
Precipitation 0.39 in - - ()
Sea Level Pressure  
Sea Level Pressure 30.13 in    
Wind  
Wind Speed 2 mph (NNE)    
Max Wind Speed 16 mph    
Max Gust Speed 20 mph    
Visibility 9 miles    
Events      
Averages and records for this station are not official NWS values.
T = Trace of Precipitation, MM = Missing Value Source: NWS Daily Summary

Daily Weather History Graph

Daily Weather History Graph

Search for Another Location

Airport or City:

Trip Planner

Search our weather history database for the weather conditions in past years. The results will help you decide how hot, cold, wet, or windy it might be!

Date:

Astronomy

Nov. 26, 2012 Rise Set
Actual Time 6:45 AM CST 4:38 PM CST
Civil Twilight 6:17 AM CST 5:07 PM CST
Nautical Twilight 5:45 AM CST 5:39 PM CST
Astronomical Twilight 5:14 AM CST 6:10 PM CST
Moon 3:30 PM CST (11/26) 4:57 AM CST (11/26)
Length of Visible Light 10h 50m
Length of Day
9h 53m
Waxing Gibbous, 97% of the Moon is Illuminated
Nov 26
Waxing Gibbous
Nov 28
Full
Dec 6
Last Quarter
Dec 13
New
Dec 19
First Quarter

Hourly Weather History & Observations

Time (CST) Temp. Windchill Dew Point Humidity Pressure Visibility Wind Dir Wind Speed Gust Speed Precip Events Conditions
12:15 AM 33.3 °F - 30.9 °F 91% 30.06 in 10.0 mi Calm Calm - N/A   Mostly Cloudy
12:55 AM 34.0 °F - 30.9 °F 89% 30.06 in 10.0 mi Calm Calm - N/A   Overcast
1:15 AM 33.4 °F - 31.6 °F 93% 30.05 in 10.0 mi Calm Calm - N/A   Mostly Cloudy
1:35 AM 34.3 °F - 31.1 °F 88% 30.06 in 10.0 mi Calm Calm - N/A   Overcast
1:55 AM 33.8 °F - 31.8 °F 92% 30.06 in 10.0 mi Calm Calm - N/A   Mostly Cloudy
2:15 AM 34.0 °F - 32.0 °F 92% 30.06 in 10.0 mi Calm Calm - N/A   Overcast
2:35 AM 34.0 °F - 31.3 °F 90% 30.06 in 10.0 mi Calm Calm - N/A   Mostly Cloudy
2:55 AM 33.4 °F - 30.9 °F 90% 30.06 in 10.0 mi Calm Calm - N/A   Clear
3:15 AM 34.0 °F - 31.1 °F 89% 30.06 in 10.0 mi Calm Calm - N/A   Clear
3:35 AM 33.4 °F - 31.5 °F 92% 30.06 in 10.0 mi Calm Calm - N/A   Mostly Cloudy
3:55 AM 34.2 °F - 31.8 °F 91% 30.06 in 10.0 mi Calm Calm - N/A   Mostly Cloudy
4:15 AM 34.7 °F - 31.8 °F 89% 30.06 in 10.0 mi Calm Calm - N/A   Mostly Cloudy
4:35 AM 35.1 °F - 31.3 °F 86% 30.06 in 10.0 mi Calm Calm - N/A   Mostly Cloudy
4:55 AM 35.6 °F - 31.6 °F 85% 30.06 in 10.0 mi Calm Calm - N/A   Scattered Clouds
5:15 AM 35.8 °F - 31.5 °F 84% 30.06 in 10.0 mi Calm Calm - N/A   Clear
5:35 AM 34.7 °F - 31.3 °F 87% 30.07 in 10.0 mi Calm Calm - N/A   Clear
5:55 AM 34.5 °F - 31.1 °F 87% 30.07 in 10.0 mi Calm Calm - N/A   Clear
6:15 AM 34.0 °F - 30.9 °F 89% 30.07 in 10.0 mi Calm Calm - N/A   Clear
6:35 AM 34.0 °F 31.0 °F 30.9 °F 89% 30.08 in 10.0 mi East 3.5 mph - N/A   Clear
6:55 AM 34.9 °F - 30.6 °F 84% 30.08 in 10.0 mi Calm Calm - N/A   Clear
7:15 AM 35.8 °F - 30.9 °F 82% 30.09 in 10.0 mi Calm Calm - N/A   Scattered Clouds
7:35 AM 39.2 °F 37.0 °F 31.8 °F 75% 30.09 in 10.0 mi East 3.5 mph - N/A   Mostly Cloudy
7:55 AM 43.0 °F - 32.7 °F 67% 30.10 in 10.0 mi Calm Calm - N/A   Overcast
8:15 AM 43.9 °F - 34.2 °F 69% 30.11 in 10.0 mi Calm Calm - N/A   Overcast
8:35 AM 46.6 °F - 33.1 °F 59% 30.10 in 10.0 mi East 4.6 mph - N/A   Scattered Clouds
8:55 AM 48.7 °F - 32.0 °F 52% 30.11 in 10.0 mi East 3.5 mph - N/A   Scattered Clouds
9:15 AM 49.8 °F - 31.5 °F 49% 30.12 in 10.0 mi Calm Calm - N/A   Mostly Cloudy
9:55 AM 50.4 °F - 32.0 °F 49% 30.11 in 10.0 mi Calm Calm - N/A   Mostly Cloudy
10:15 AM 51.3 °F - 32.0 °F 48% 30.11 in 10.0 mi ENE 3.5 mph - N/A   Overcast
10:35 AM 51.1 °F - 32.2 °F 48% 30.11 in 10.0 mi NNE 3.5 mph - N/A   Overcast
10:55 AM 51.4 °F - 32.0 °F 47% 30.10 in 5.0 mi Calm Calm - N/A   Overcast
11:15 AM 51.4 °F - 32.2 °F 48% 30.10 in 10.0 mi Calm Calm - N/A   Overcast
11:35 AM 51.3 °F - 32.2 °F 48% 30.10 in 10.0 mi Calm Calm - N/A   Overcast
11:55 AM 51.1 °F - 34.0 °F 52% 30.10 in 10.0 mi Calm Calm - N/A   Overcast
12:15 PM 50.2 °F - 40.1 °F 68% 30.09 in 10.0 mi Calm Calm - N/A   Overcast
12:35 PM 49.3 °F - 40.3 °F 71% 30.08 in 10.0 mi Calm Calm - N/A   Overcast
12:55 PM 49.8 °F - 38.3 °F 65% 30.10 in 10.0 mi Calm Calm - N/A   Overcast
1:15 PM 48.4 °F - 40.8 °F 75% 30.07 in 7.0 mi East 3.5 mph - 0.03 in   Overcast
1:35 PM 48.7 °F - 40.5 °F 73% 30.08 in 10.0 mi Calm Calm - 0.03 in   Overcast
1:55 PM 48.4 °F - 40.3 °F 74% 30.08 in 10.0 mi NE 3.5 mph - 0.04 in   Overcast
2:15 PM 48.2 °F - 39.7 °F 73% 30.07 in 10.0 mi ENE 4.6 mph - 0.01 in   Overcast
2:35 PM 46.9 °F - 41.2 °F 80% 30.08 in 7.0 mi Calm Calm - 0.04 in   Overcast
2:55 PM 46.9 °F - 42.1 °F 83% 30.11 in 10.0 mi SSW 6.9 mph - 0.04 in   Overcast
3:15 PM 46.0 °F - 41.7 °F 85% 30.10 in 4.0 mi Calm Calm - 0.05 in   Mostly Cloudy
3:35 PM 45.7 °F - 44.8 °F 97% 30.12 in 10.0 mi Calm Calm - 0.06 in   Overcast
3:55 PM 46.0 °F 41.9 °F 42.3 °F 87% 30.15 in 10.0 mi WNW 8.1 mph - 0.07 in   Overcast
4:15 PM 45.5 °F 40.8 °F 40.8 °F 84% 30.10 in 5.0 mi North 9.2 mph - 0.03 in   Overcast
4:35 PM 45.5 °F - 41.5 °F 86% 30.12 in 7.0 mi Calm Calm - 0.05 in   Overcast
4:55 PM 45.0 °F 42.6 °F 43.7 °F 95% 30.12 in 10.0 mi ENE 4.6 mph - 0.06 in   Overcast
5:15 PM 44.6 °F - 43.7 °F 97% 30.14 in 7.0 mi Calm Calm - 0.04 in   Overcast
5:35 PM 44.8 °F 40.4 °F 43.9 °F 97% 30.17 in 10.0 mi North 8.1 mph - 0.05 in   Overcast
5:55 PM 44.1 °F 39.0 °F 42.1 °F 93% 30.16 in 7.0 mi North 9.2 mph 16.1 mph 0.09 in   Overcast
6:15 PM 43.2 °F 37.4 °F 40.5 °F 90% 30.16 in 7.0 mi NNE 10.4 mph 17.3 mph 0.04 in   Overcast
6:35 PM 42.8 °F 37.5 °F 39.6 °F 88% 30.17 in 10.0 mi North 9.2 mph 16.1 mph 0.05 in   Overcast
6:55 PM 42.4 °F 37.5 °F 39.0 °F 88% 30.18 in 10.0 mi NNE 8.1 mph - 0.06 in   Overcast
7:15 PM 42.6 °F 37.8 °F 38.7 °F 86% 30.21 in 10.0 mi NNW 8.1 mph - 0.01 in   Overcast
7:35 PM 42.1 °F 36.1 °F 36.9 °F 82% 30.21 in 10.0 mi North 10.4 mph 18.4 mph 0.01 in   Overcast
7:55 PM 41.0 °F 33.9 °F 36.3 °F 83% 30.22 in 10.0 mi North 12.7 mph 17.3 mph 0.01 in   Overcast
8:15 PM 40.6 °F 32.7 °F 35.8 °F 83% 30.22 in 10.0 mi North 15.0 mph 19.6 mph N/A   Overcast
8:35 PM 40.5 °F 33.2 °F 35.6 °F 83% 30.24 in 10.0 mi North 12.7 mph 19.6 mph N/A   Overcast
8:55 PM 39.7 °F 32.7 °F 35.6 °F 85% 30.24 in 10.0 mi North 11.5 mph 19.6 mph N/A   Overcast
9:15 PM 39.2 °F 30.5 °F 35.4 °F 86% 30.24 in 10.0 mi North 16.1 mph 19.6 mph N/A   Overcast
9:35 PM 38.3 °F 32.5 °F 36.7 °F 94% 30.25 in 7.0 mi North 8.1 mph - 0.01 in   Overcast
9:55 PM 38.3 °F 33.2 °F 37.8 °F 98% 30.26 in 7.0 mi North 6.9 mph - 0.02 in   Overcast
10:15 PM 38.3 °F 31.9 °F 36.7 °F 94% 30.26 in 10.0 mi North 9.2 mph - N/A   Overcast
10:35 PM 37.9 °F 32.1 °F 36.0 °F 93% 30.26 in 10.0 mi North 8.1 mph - N/A   Overcast
10:55 PM 37.6 °F 31.0 °F 35.1 °F 91% 30.26 in 10.0 mi North 9.2 mph - N/A   Overcast
11:15 PM 37.6 °F 32.3 °F 32.4 °F 81% 30.27 in 10.0 mi North 6.9 mph - N/A   Overcast
11:35 PM 37.4 °F 32.1 °F 32.5 °F 83% 30.28 in 10.0 mi North 6.9 mph - N/A   Overcast
11:55 PM 37.4 °F 32.8 °F 32.0 °F 81% 30.28 in 10.0 mi North 5.8 mph - N/A   Overcast